Tracking 33877 objects as of 19-Apr-2026
HD Live streaming from Space Station
objects crossing your sky now

STARLINK-4080

Track STARLINK-4080 now!
10-day predictions
STARLINK-4080 is classified as:


NORAD ID: 52835
Int'l Code: 2022-062F
Perigee: 546.0 km
Apogee: 547.8 km
Inclination: 53.2 °
Period: 95.4 minutes
Semi major axis: 6917 km
RCS: Unknown
Launch date: June 17, 2022
Source: United States (US)
Launch site: AIR FORCE EASTERN TEST RANGE (AFETR)
Your satellite tracking list
Your tracking list is empty




NASA's NSSDC Master Catalog

Two Line Element Set (TLE):
1 52835U 22062F   26109.56134325  .00001376  00000-0  10453-3 0  9995
2 52835  53.2170 210.6418 0001278  84.0115 276.1023 15.08841515211959
Source of the keplerian elements: AFSPC